www.pogodaiklimat.ru

Погода и климат >> Архив погоды >> Россия >> Якутия >> Иэма


ПОГОДА в Иэме

  • Прогноз погоды в Иэме
  • Монитор погоды в Иэме
  • Климат города

АРХИВ ПОГОДЫ в Иэме

Время (UTC), дата Ветер
(напр.,м/с)
 
Видим.   Явления Облачность Т
(С)
Тd
(С)
f
(%)
Тe
(С)
Тes
(С)
Комфортность P
(гПа)
Po
(гПа)
Тmin
(С)
Tmax
(С)
R
(мм)
R24
(мм)
S
(см)
12 15.11 штиль 0 50 км 10/0
[Ac As]
-31.4 -34.3 75 -31 -31 опасность
обморожения
1023.1 930.7
15 15.11 штиль 0 50 км 4/0
[Ac trans]
-34.5 -37.4 75 -35 -35 опасность
обморожения
1022.3 928.8
18 15.11 штиль 0 50 км 4/0
[Ac trans]
-37.0 -39.8 75 -37 -37 опасность
обморожения
1021.6 927.3
21 15.11 штиль 0 50 км 6/0
[Ac trans]
-37.7 -38.1 96 -38 -38 опасность
обморожения
1020.3 925.8
00 16.11 штиль 0 20 км слабый снег 10/0
[As op]
-31.5 -34.5 75 -32 -32 опасность
обморожения
1017.0 925.1
03 16.11 штиль 0 20 км слабый снег 10/0
[As op]
-29.1 -32.2 74 -29 -29 1015.8 924.8
06 16.11 штиль 0 4000 м слабый снег 10/0 300 м
[As op]
-27.0 -30.2 74 -27 -27 1015.7 925.5
09 16.11 штиль 0 4000 м слабый снег 10/0 300 м
[As op]
-24.6 -27.2 79 -25 -25 1016.2 926.8 -24.6 2
12 16.11 Ю 2 10 км слабый снег 9/0 600 м
[As op]
-25.9 -28.4 79 -33 -33 опасность
обморожения
1018.0 928.0
15 16.11 СВ 1 4000 м слабый снег 10/0 300 м
[As op]
-25.3 -27.8 80 -29 -29 1018.9 929.1
18 16.11 штиль 0 10 км слабый снег 8/0
[As op]
-26.1 -28.6 79 -26 -26 1020.6 930.4
21 16.11 штиль 0 50 км {снег} 10/0
[Ac As]
-28.6 -31.7 75 -29 -29 1021.9 930.6 -28.6 0.9 16
00 17.11 штиль 0 50 км {снег} 8/0
[Cs]
-29.2 -33.0 70 -29 -29 1023.5 931.8 -29.2
03 17.11 ЮВ 4 50 км 8/0
[Cs]
-28.0 -32.7 64 -39 -39 опасность
обморожения
1023.1 931.9
06 17.11 В 3 50 км 3/0
[Cs]
-30.2 -34.7 65 -40 -40 опасность
обморожения
1024.9 932.1
09 17.11 ЮВ 5 50 км 3/0
[Cs]
-30.8 -34.6 69 -44 -44 опасность
обморожения
1024.5 932.2 -28.0
12 17.11 В 3 50 км ясно -32.6 -36.2 70 -43 -43 опасность
обморожения
1025.4 932.4
15 17.11 В 2 50 км 3/0
[Cs]
-32.5 -36.2 69 -40 -40 опасность
обморожения
1024.8 931.8
18 17.11 ЮВ 1 50 км 3/0
[Cs]
-33.6 -37.2 70 -38 -38 опасность
обморожения
1024.7 931.4
21 17.11 штиль 0 50 км ясно -35.4 -39.0 69 -35 -35 опасность
обморожения
1025.0 931.0 -36.7 16
00 18.11 штиль 0 50 км ясно -42.2 -45.6 69 -42 -42 опасность
обморожения
1027.9 931.0 -42.2
03 18.11 штиль 0 50 км ясно -39.6 -42.9 71 -40 -39 опасность
обморожения
1026.1 930.4
06 18.11 С 1 50 км 4/0
[Ci fib]
-40.1 -43.4 70 -45 -45 опасность
обморожения
1026.3 930.4
09 18.11 штиль 0 50 км ясно -42.0 -44.6 76 -42 -42 опасность
обморожения
1026.5 930.7 -40.1
12 18.11 штиль 0 50 км 3/0
[Ci fib]
-40.5 -43.9 70 -41 -41 опасность
обморожения
1027.4 931.2
15 18.11 СЗ 1 50 км ясно -42.9 -46.2 70 -48 -48 опасность
обморожения
1028.7 931.4
18 18.11 штиль 0 50 км ясно -43.8 -46.9 71 -44 -44 опасность
обморожения
1029.5 931.8
21 18.11 штиль 0 50 км ясно -43.0 -46.2 71 -43 -43 опасность
обморожения
1029.8 932.4 -43.8 16
00 19.11 штиль 0 50 км ясно -44.0 -47.6 67 -44 -44 опасность
обморожения
1031.0 933.1 -45.0
03 19.11 штиль 0 50 км ясно -41.0 -44.4 69 -41 -41 опасность
обморожения
1029.9 933.3
06 19.11 штиль 0 50 км ясно -41.0 -44.4 69 -41 -41 опасность
обморожения
1029.7 933.1
09 19.11 С 1 50 км ясно -44.5 -47.6 71 -50 -50 опасность
обморожения
1031.8 933.6 -41.0
12 19.11 штиль 0 50 км ясно -45.5 -48.4 72 -46 -46 опасность
обморожения
1031.2 932.6
15 19.11 штиль 0 50 км ясно -45.6 -49.2 67 -46 -46 опасность
обморожения
1029.1 930.7
18 19.11 штиль 0 50 км ясно -46.0 -49.2 70 -46 -46 опасность
обморожения
1026.9 928.5
21 19.11 штиль 0 50 км 3/0
[Ci fib]
-46.9 -50.2 69 -47 -47 опасность
обморожения
1023.7 925.3 -47.4 16
00 20.11 штиль 0 50 км 10/0
[Cs]
-43.0 -45.6 75 -43 -43 опасность
обморожения
1018.9 922.5
03 20.11 штиль 0 10 км слабый снег 10/0 600 м
[As op]
-36.4 -39.4 74 -36 -36 опасность
обморожения
1012.2 919.0
06 20.11 штиль 0 10 км слабый снег 10/0 600 м
[As op]
-33.9 -36.8 75 -34 -34 опасность
обморожения
1006.9 915.9
09 20.11 штиль 0 10 км слабый снег 9/0
[As op]
-31.9 -35.0 74 -32 -32 опасность
обморожения
1004.3 913.4 -32.9 1
12 20.11 штиль 0 10 км слабый снег 10/0
[As op]
-30.0 -33.0 75 -30 -30 1001.2 911.3
15 20.11 штиль 0 10 км слабый снег 10/0
[As op]
-28.5 -31.9 72 -29 -29 999.1 909.8
18 20.11 В 1 10 км слабый снег 10/0
[As op]
-27.6 -30.7 75 -31 -31 опасность
обморожения
998.9 910.0
21 20.11 ЮЗ 1 50 км {снег} 10/0
[As trans]
-28.5 -31.7 74 -32 -32 опасность
обморожения
999.1 909.8 -32.5 1 19
00 21.11 штиль 0 50 км {снег} 10/0
[As trans]
-33.0 -36.7 69 -33 -33 опасность
обморожения
1002.7 911.5 -33.0
03 21.11 50 км 4/0
[Cs]
-33.4 -37.0 70 1003.9 912.5
06 21.11 СЗ 1 50 км 10/0
[Ac As]
-32.6 -36.2 70 -37 -37 опасность
обморожения
1004.4 913.3
09 21.11 ЮВ 1 50 км слабый снег 10/0
[As op]
-33.5 -37.2 69 -38 -38 опасность
обморожения
1005.8 914.2 -28.5 0.0
12 21.11 ЮВ 1 20 км слабый снег 10/0
[As op]
-33.6 -37.2 70 1006.6 914.7
15 21.11 В 1 20 км слабый снег 10/0
[As op]
-33.2 -37.0 69 -38 -38 опасность
обморожения
1006.5 915.0
18 21.11 штиль 0 20 км слабый снег 10/0
[As op]
-32.6 -36.2 70 -33 -33 опасность
обморожения
1006.6 915.3
21 21.11 В 1 50 км {снег} 8/0
[As trans]
-33.1 -36.0 75 -38 -38 опасность
обморожения
1008.6 916.9 -34.8 0.9 19
00 22.11 штиль 0 50 км {снег} 9/0
[Cs]
-35.7 -39.4 69 -36 -36 опасность
обморожения
1011.5 918.5 -36.1
03 22.11 штиль 0 50 км 8/0
[Cs]
-36.5 -41.2 62 -37 -36 опасность
обморожения
1013.3 919.5
06 22.11 штиль 0 50 км 10/0
[Cs]
-36.1 -40.8 62 -36 -36 опасность
обморожения
1014.8 921.0

 

Местоположение метеостанции Иэма (Якутия, Россия): широта 65.30 долгота 135.80 высота над уровнем моря 675 м.

В архиве по умолчанию представлена погода в Иэме за последнюю неделю. Архивные данные за месяц целиком и за предыдущие месяцы, начиная с января 2011 года, Вы можете получить, выбрав интересующий диапазон дат из раскрывающегося списка и нажав кнопку "Ввод!".

Внимание! Время в таблицах - всемирное. Для получения местного времени необходимо прибавить поправку, которая в Иэме равна 9 ч.

Смотрите также архив погоды в соседних городах и на ближайших метеорологических станциях:

Погода в Томпо (Якутия, Россия) (150 км)
Погода в Усть-Чарках (Якутия, Россия) (171 км)
Погода в Екюччю (Якутия, Россия) (250 км)
Погода в Батагае (Якутия, Россия) (267 км)
Погода в Себян-Кюеле (Якутия, Россия) (269 км)
Погода в Верхоянске (Якутия, Россия) (274 км)
Погода в Крест-Хальджае (Якутия, Россия) (284 км)
Погода в Теплом Ключе (Якутия, Россия) (284 км)
Погода в Верхоянском Перевозе (Якутия, Россия) (286 км)
Погода в Восточной (Якутия, Россия) (294 км)

Пояснения к столбцам:

Ветер - указаны скорость ветра в м/с - средняя за 10 мин, порывы в срок и между сроками (в фигурных скобках) и направление, откуда дует ветер: С - северный, СВ - северо-восточный, В - восточный, ЮВ - юго-восточный, Ю - южный, ЮЗ - юго-западный, З - западный, СЗ - северо-западный.
Видимость - горизонтальная дальность видимости в метрах или километрах. При видимости от 1 до 10 км при отсутствии осадков обычно наблюдается дымка, при ухудшении видимости до 1 км и менее - туман. В сухую погоду видимость может ухудшаться дымом, пылью или мглою.
Явления - указаны атмосферные явления, наблюдавшиеся в срок или в последний час перед сроком; фигурными скобками обозначены явления, наблюдавшиеся между сроками (за 1-3 часа до срока); квадратными скобками обозначены град или гололедные отложения с указанием их диаметра в мм.
Облачность - указаны через наклонную черту общая и нижняя облачность в баллах и высота нижней границы облаков в метрах; квадратными скобками обозначены формы облаков: Ci - перистые, Cs - перисто-слоистые, Cc - перисто-кучевые, Ac - высококучевые, As - высокослоистые, Sc - слоисто-кучевые, Ns - слоисто-дождевые, Cu - кучевые, Cb - кучево-дождевые. Подробнее классификацию облаков см. в Атласе облаков (PDF).
T - Температура воздуха - температура, измеренная на высоте 2 м над землей.
Td - Температура точки росы - температура, при понижении до которой содержащийся в воздухе водяной пар достигнет насыщения.
f - Относительная влажность воздуха - влажноcть воздуха, измеренная на высоте 2 м над землей.
Te - Эффективная температура - температура, которую ощущает одетый по сезону человек в тени. Характеристика душности погоды. При расчете учитывается влияние влажности воздуха и скорости ветра на теплоощущения человека.
Tes - Эффективная температура на солнце - температура, которую ощущает человек, с поправкой на солнечный нагрев. Характеристика знойности погоды. Зависит от высоты солнца над горизонтом, облачности и скорости ветра. Ночью, в пасмурную погоду, а также при ветре 12 м/с и более поправка равна нулю.
P - Атмосферное давление - приведенное к уровню моря атмосферное давление.
Po - Атмосферное давление - измеренное на уровне метеостанции атмосферное давление.
Tmin - Минимальная температура - минимум температуры воздуха на высоте 2 м над землей.
Tmax - Максимальная температура - максимум температуры воздуха на высоте 2 м над землей.
R - Количество осадков - Количество выпавших осадков за период времени, мм. При наведении курсора мыши на число - период времени, за который выпало указанное количество осадков.
R24 - Количество осадков - Количество выпавших осадков за 24 часа, мм.
S - Снежный покров - Высота снежного покрова, см. При наведении курсора мыши на число - состояние снежного покрова и степень покрытия местности в баллах.